sat.trackr.live / text

‹ back to catalog

GPS BIIF-4 (PRN 27)

NORAD 39166 · 2013-023A

PAYLOAD ACTIVE UNKNOWN

§ Identity

Operator
Country
US
Launch date
2013-05-15
Launch site
AFETR
Launch vehicle
Mass (kg)
RCS (m²)
11.00

Purposes: earth_obs, nav

External: N2YO · Heavens-Above · Gunter

§ Orbital elements

Epoch: 2026-08-31T11:14:43.964160Z

Period
717.98 min
Inclination
54.4507°
Eccentricity
0.0141952
Mean motion
2.00563176 rev/d
Perigee alt
19,805.2 km
Apogee alt
20,559.3 km
Semi-major
26,560.4 km
B*
0.0000e+0
RAAN
265.9012°
Arg perigee
51.1456°
Mean anomaly
310.1602°
Rev number
9,739

§ Raw data

GPS BIIF-4  (PRN 27)1 39166U 13023A   26243.46856440  .00000033  00000+0  00000+0 0  99922 39166  54.4507 265.9012 0141952  51.1456 310.1602  2.00563176 97392

JSON: /api/v1/satellites/39166 · /tle

For live sub-satellite position, see the globe view (requires WebGL).

§ Visibility from observer

Set your observer location to see the next 7 days of passes ≥ 10°. The values pass through the URL so the page stays shareable.

No JS? Fill the form by hand. The geolocation button needs JavaScript.